Regional Weather Roundup
Issued by NWS Upton, NY

Current Version | Previous Version | Graphics & Text | Print | Product List | Glossary Off
Versions: 1 2 3 4 5 6 7 8 9 10 11 12 13 14 15 16 17 18 19 20 21 22 23 24 25 26 27 28 29 30 31 32 33 34 35 36 37 38 39 40 41 42 43 44 45 46 47 48 49 50

000
ASUS41 KOKX 030508
RWROKX

REGIONAL WEATHER ROUNDUP
NATIONAL WEATHER SERVICE NEW YORK NY
100 AM EDT SUN MAY 03 2015

NOTE: "FAIR" INDICATES FEW OR NO CLOUDS BELOW 12,000 FEET WITH NO
SIGNIFICANT WEATHER AND/OR OBSTRUCTIONS TO VISIBILITY.

NYZ071-072-176-178-NJZ106-104-030600-
NEW YORK CITY METRO AREA


CITY           SKY/WX    TMP DP  RH WIND       PRES   REMARKS
CENTRAL PARK   MOCLDY    52  34  50 SW3       30.07S
LAGUARDIA APRT MOCLDY    51  38  60 S7        30.05S
KENNEDY INTL   PTCLDY    48  40  73 SW6       30.06S
NEWARK/LIBERTY PTCLDY    51  38  60 S3        30.05R
BRNX BOT. GARD   N/A     50  37  62 SE5       30.05S
TETERBORO      PTCLDY    51  35  54 S5        30.04S
$$

NYZ177-179-078>081-030600-
LONG ISLAND NEW YORK

CITY           SKY/WX    TMP DP  RH WIND       PRES   REMARKS
FARMINGDALE    MOCLDY    47  41  80 SW3       30.05S
ISLIP          PTCLDY    46  40  79 CALM      30.04S
SHIRLEY        PTCLDY    44  38  79 CALM      30.06S
WESTHAMPTON    CLEAR     34  30  85 NW3       30.06S
MONTAUK POINT    N/A     44  38  79 CALM      30.06R
$$

NYZ052-065-067-030600-
HUDSON VALLEY

CITY           SKY/WX    TMP DP  RH WIND       PRES   REMARKS
WHITE PLAINS   PTCLDY    46  39  76 CALM      30.03S
NEWBURGH       CLEAR     52  41  66 VRB6      30.03R
MONTGOMERY     CLEAR     49  42  77 CALM      30.01R
POUGHKEEPSIE   PTCLDY    50  40  68 SE6       30.01R
ALBANY         PTCLDY    57  36  45 CALM      29.98R
$$

NJZ001-105-106-008-010-013-015-019>022-104-030600-
NEW JERSEY

CITY           SKY/WX    TMP DP  RH WIND       PRES   REMARKS
NEWARK/LIBERTY PTCLDY    51  38  60 S3        30.05R
TETERBORO      PTCLDY    51  35  54 S5        30.04S
CALDWELL       CLEAR     47  39  74 CALM      30.05S
MORRISTOWN     CLEAR     45  39  81 CALM      30.05S
SOMERVILLE     CLOUDY    50  39  66 SE3       30.03R
SUSSEX         CLEAR     51  42  71 CALM      30.04R
ANDOVER          N/A     50  42  74 S3        30.03S
TRENTON        PTCLDY    49  38  65 S5        30.04R
MILLVILLE      CLEAR     45  42  89 CALM      30.04S
ATLANTIC CITY  CLEAR     49  40  71 S6        30.04S
WRIGHTSTOWN    CLEAR     45  40  82 E2        30.03R
TOMS RIVER     CLOUDY    39  36  87 CALM      30.06R
BELMAR         MOCLDY    48  36  61 W3        30.05S
$$

PAZ047>061-062-071-030600-
EASTERN PENNSYLVANIA

CITY           SKY/WX    TMP DP  RH WIND       PRES   REMARKS
PHILADELPHIA   PTCLDY    54  43  66 SW3       30.04S
ALLENTOWN      CLOUDY    57  46  66 E6        30.02R
SCRANTON       PTCLDY    53  31  42 E5        30.02R
$$

CTZ002-004>006-009-010-012-RIZ004-006-007-MAZ004-011-015-030600-
SOUTHERN NEW ENGLAND
 IN CT

CITY           SKY/WX    TMP DP  RH WIND       PRES   REMARKS
BRADLEY INTL   MOCLDY    50  38  63 S8        30.01S
HARTFORD       PTCLDY    47  38  71 S7        30.03F
DANBURY        CLOUDY    47  35  63 CALM      30.04F
WTRBRY/OXFORD  NOT AVBL
BRIDGEPORT     CLEAR     50  42  74 SW6       30.05S
MERIDEN        CLEAR     44  38  79 CALM      30.04F
NEW HAVEN      CLOUDY    48  40  73 CALM      30.05S
CHESTER        FAIR      45  37  76 W3        30.05S
GROTON         MOCLDY    45  39  79 W5        30.04S
WILLIMANTIC    PTCLDY    45  38  76 CALM      30.04S

 IN RI

CITY           SKY/WX    TMP DP  RH WIND       PRES   REMARKS
PROVIDENCE     CLEAR     43  35  73 SW3       30.03F
BLOCK ISLAND   CLEAR     43  37  81 W7        30.04S
WESTERLY       PTCLDY    43  40  89 CALM      30.05R

 IN MA

CITY           SKY/WX    TMP DP  RH WIND       PRES   REMARKS
BOSTON         MOCLDY    48  40  73 S6        30.02R
WORCESTER      MOCLDY    49  38  65 SW9       30.00S
WESTFIELD      CLOUDY    51  39  63 S10       30.00S
PROVINCETOWN   CLEAR     41  39  93 SW3       30.04S
NANTUCKET      CLEAR     36  33  89 CALM      30.04R
$$

ANZ330-335-338-340-345-350-353-355-030600-
COASTAL MARINE OBSERVATIONS


STATION/POSITION TIME  SKY/WX   TEMP    WIND        PRES    VSBY  WAVE
                                AIR SEA DIR/SP/G                  HT/PER
                 (UTC)          (F)     (DEG/KT/KT) (MB)    (MI)  (FT/S)
NY HARB ENTRANCE 0450            49 50  210/  8/ 10 1017.4          4/ 8
4S FIRE IS       0403               47                N/A           5/ 8
20S FIRE ISLAND  0450            46 46   CALM  /  2 1017.8          5/ 8
GREAT SOUTH BAY  0430            49 57  250/  8/ 10   N/A
23SW MTP         0450            45 44  240/  2/  4 1017.4          5/ 7
HUDSON CANYON    NOT AVBL
EXECUTION ROCKS  NOT AVBL
WESTERN LI SOUND NOT AVBL
CENTRAL LI SOUND NOT AVBL
EASTERN LI SOUND 0400            45     250/  4/  6   N/A
ROBBINS REEF     0412            50     150/  7/  8 1016.0
$$


>>>>>>>>>>>>>>>>>>>>>>>>>>>> KEY <<<<<<<<<<<<<<<<<<<<<<<<<<<
>                                                          <
>     SKY/WX - SKY CONDITION/PRESENT WEATHER               <
>     TMP    - TEMPERATURE IN FAHRENHEIT                   <
>     DP     - DEWPOINT IN FAHRENHEIT                      <
>     RH     - RELATIVE HUMIDITY IN PERCENT                <
>     WIND   - DIRECTION AND SPEED IN MPH                  <
>     PRES   - MEAN SEA LEVEL PRESSURE IN INCHES OF HG     <
>     WCI    - WIND CHILL INDEX                            <
>     VSB    - VISIBILITY IN MILES                         <
>     HX     - HEAT INDEX                                  <
>     TC     - TEMPERATURE IN CELSIUS                      <
>     VRB    - VARIABLE WIND DIRECTION                     <
>                                                          <
>>>>>>>>>>>>>>>>>>>>>>>>>>>> KEY <<<<<<<<<<<<<<<<<<<<<<<<<<<





USA.gov is the U.S. government's official web portal to all federal, state and local government web resources and services.